Aérodrome :
LOGIN :

S'inscrire | Disclaimer

   EN    FR    IT 

 










Légende :    VFR   VFR Marginal   IFR   IFR Intensif   IFR Très Intensif
Visi : 
Plafond : 
>= 8 km
>= 3000ft
5 à 8 km
1000 à 3000 ft
1500m à 5 km
500 à 1000 ft
800 à 1500m
200 à 500 ft
< 800m
< 200 ft
Symboles :   Orages  Brouillard  Fortes neiges  Fortes précipitations  Vent > 20 kt
SIGMETs :   Divers  Orages  Givrage  Turbulence  Onde Orograph.  Cendres Volcan.







- Altitude de l'aérodrome : 511 ft
- Code IATA : LHA


EDTL - Lahr Schwarzwald

DERNIER METAR :
  • 211750Z 22003KT 7000 -RA FEW010 BKN037 14/13 Q1016

METARs EXPIRÉS :
  • 211720Z 20005KT 5000 -RA SCT015 BKN036 14/13 Q1016
  • 211650Z 20004KT 6000 BKN035 14/13 Q1016
  • 211620Z 20006KT 6000 FEW040 SCT072 14/12 Q1015
  • 211550Z 20006KT 5000 FEW012 BKN037 13/12 Q1015

TAF TAF EDTL
Valide du 21 à 18h jusqu'au 22 à 00h UTC


211700Z 2118/2124 23005KT 7000 BKN030
TEMPO 2118/2124 4000 RA BKN012
Pas de NOTAMs connus pour ce terrain.



MET'MAP, la Météo Aéronautique d'un coup d'oeil ! - Copyright ORBIFLY Décembre 2007 - Disclaimer

ORBIFLY MET'MAP TEAM :

Programmation & Développement : Alexandra Zaïnal
Conception & Développement : Baudouin d'Aumeries
Co-Programmation & Développement : Marc-Olivier Méhu
Soutien technique & logistique : Manuel Goepfert

Contact : metmap@orbifly.com




SOURCES & CREDITS :

   NOAA